TimeCST,TemperatureF,Dew PointF,Humidity,Sea Level PressureIn,VisibilityMPH,Wind Direction,Wind SpeedMPH,Gust SpeedMPH,PrecipitationIn,Events,Conditions,WindDirDegrees,DateUTC
12:53 AM,-9.9,-15.0,78,30.71,10.0,SW,5.8,-,N/A,,Clear,230,2013-12-07 06:53:00
1:53 AM,-11.0,-15.0,83,30.72,10.0,WSW,4.6,-,N/A,,Clear,240,2013-12-07 07:53:00
2:53 AM,-11.9,-18.9,71,30.73,10.0,West,4.6,-,N/A,,Clear,260,2013-12-07 08:53:00
3:53 AM,-13.0,-18.9,75,30.74,10.0,SW,5.8,-,N/A,,Clear,230,2013-12-07 09:53:00
4:53 AM,-14.1,-17.0,87,30.76,10.0,SW,5.8,-,N/A,,Clear,230,2013-12-07 10:53:00
5:53 AM,-13.0,-16.1,86,30.75,10.0,WSW,5.8,-,N/A,,Clear,250,2013-12-07 11:53:00
6:53 AM,-14.1,-17.0,87,30.78,10.0,SW,6.9,-,N/A,,Clear,220,2013-12-07 12:53:00
7:53 AM,-14.1,-18.0,82,30.77,10.0,WSW,5.8,-,N/A,,Clear,240,2013-12-07 13:53:00
8:53 AM,-11.9,-17.0,78,30.78,10.0,WSW,4.6,-,N/A,,Clear,250,2013-12-07 14:53:00
9:53 AM,-9.0,-11.9,87,30.79,10.0,West,3.5,-,N/A,,Clear,260,2013-12-07 15:53:00
10:53 AM,-5.1,-11.0,76,30.78,10.0,SSW,4.6,-,N/A,,Clear,210,2013-12-07 16:53:00
11:53 AM,-2.9,-11.9,65,30.77,10.0,SW,9.2,-,N/A,,Clear,220,2013-12-07 17:53:00
12:53 PM,-0.9,-11.9,60,30.75,10.0,West,8.1,-,N/A,,Clear,270,2013-12-07 18:53:00
1:53 PM,-0.0,-11.9,57,30.73,10.0,West,9.2,-,N/A,,Clear,260,2013-12-07 19:53:00
2:53 PM,-0.0,-11.0,60,30.72,10.0,WSW,6.9,-,N/A,,Clear,250,2013-12-07 20:53:00
3:53 PM,-0.9,-11.0,62,30.71,10.0,West,6.9,-,N/A,,Scattered Clouds,260,2013-12-07 21:53:00
4:53 PM,-2.9,-11.0,68,30.71,10.0,SW,3.5,-,N/A,,Clear,230,2013-12-07 22:53:00
5:53 PM,-4.0,-11.0,72,30.69,10.0,Calm,Calm,-,N/A,,Clear,0,2013-12-07 23:53:00
6:53 PM,-4.0,-11.0,72,30.67,10.0,WSW,3.5,-,N/A,,Clear,250,2013-12-08 00:53:00
7:53 PM,-5.1,-9.0,83,30.68,10.0,SSW,3.5,-,N/A,,Clear,210,2013-12-08 01:53:00
8:53 PM,-5.1,-11.0,76,30.66,10.0,Calm,Calm,-,N/A,,Clear,0,2013-12-08 02:53:00
9:53 PM,-5.1,-11.0,76,30.65,10.0,Calm,Calm,-,N/A,,Clear,0,2013-12-08 03:53:00
10:53 PM,-5.1,-9.0,83,30.64,10.0,Calm,Calm,-,N/A,,Clear,0,2013-12-08 04:53:00
11:53 PM,-4.0,-9.0,79,30.63,10.0,Calm,Calm,-,N/A,,Clear,0,2013-12-08 05:53:00